ELECTRON KICK STAGE R/B, 62086

Orbit data source: Space-Track

ELECTRON KICK STAGE R/B, 62086 is space debris in SSO originally from a launch on Mon, 25 Nov 2024 UTC launched from the Rocket Lab Launch Complex (RLLC). Debris objects in space refer to the collection of defunct objects orbiting the Earth. Examples of debris include non-operational satellites, rocket bodies, and fragments generated from explosions, collisions, or faulty payload assembly.

Loading next visibility...
Identifier
62086, 2024-219F
Orbit
SSO
Country
Flag of USUS
Related business
Manufacturer
Rocket Lab
Mission
Spacecraft
Bus & Motor
KICK STAGE, CURIE
Mass
~50 kg wet, ~50 kg dry
Launch date (UTC)
2024-11-25 (1 year ago)
Launch vehicle
Unknown
Launch site
Rocket Lab Launch Complex (RLLC)
Object type
Payload
Rocket body
Debris
Shape & HBR
Trunc Cone, 0.7 m
Radar Cross Section
0.760 m², Medium (>0.1 m² and < 1m²)

Expand to show TLE details & history
Last TLE update: 2 days ago

TLE from 2 days ago
0 ELECTRON KICK STAGE R/B
1 62086U 24219F   25312.72798000  .00006916  00000-0  62641-3 0  9990
2 62086  97.9705 121.3336 0053288 326.1577  33.6246 14.94619224 51986
Epoch: 2025-11-08T17:28Z
TLE epoch observation values (Epoch: 2025-11-08T17:28:17.472Z)
Latitude
-0.00002°
Longitude
171.10738°
Altitude
555.758 km
Speed
7.601 km/s
True Right ascension
08h 05m 20s
True Declination
0° 00' 00"
Sunlit
Object was in daylight at epoch
Visualization orbit readout
Latitude
Unknown
Longitude
Unknown
Altitude
Unknown
Speed
Unknown
Apparent Right ascension
Unknown
Apparent Declination
Unknown
Sunlit
N/A
Visualization observer readout
Local Sidereal Time
03:41:57
Azimuth
Unknown
Elevation
Unknown
Doppler factor
Unknown
Orbital elements
Apogee altitude
617.661 km
Perigee altitude
543.498 km
Semi-major axis
6,958.716 km
Eccentricity
0.00533
Inclination
97.9705°
RAAN
121.3336°
Arg. of periapsis
326.1577°
True anomaly
33.96462°
Mean anomaly
33.6246°
Eccentric anomaly
33.79442°
Mean motion
3.73895 °/min
Orbital period
96.28 mins
BSTAR
0.00062641
Loading maneuver chart data...
Computing Atmospheric mass density...
Loading historical data...
Loading historical data...
Loading historical data...
Loading historical data...
Loading historical data...
Loading historical data...
Loading historical data...

Documentation

Showing up to 5 results
|